Location: Unspecified
(47.1121°N, 116.3927°W)
Time: 23:08:12
(UTC-08:00)

Resurs 1-4 Rocket - Visible Passes

Search period start: 17 February 2018 00:00
Search period end: 27 February 2018 00:00
Orbit: 800 x 813 km, 98.5° (Epoch: 17 February)

Date Brightness Start Highest point End Pass type
(mag) Time Alt. Az. Time Alt. Az. Time Alt. Az.
23 Feb 4.6 03:06:58 10° N 03:07:18 11° N 03:07:18 11° N visible
24 Feb 4.7 02:42:04 10° N 02:42:31 12° N 02:42:31 12° N visible
25 Feb 4.8 02:17:19 10° N 02:17:45 12° N 02:17:45 12° N visible
26 Feb 5.0 01:52:44 10° NNE 01:52:59 11° NNE 01:52:59 11° NNE visible
26 Feb 4.5 03:33:40 10° NNW 03:34:04 11° NNW 03:34:04 11° NNW visible
